Cosmos 1703 - Orbit

View from above orbital plane
View from above orbital plane
View from above satellite
View from above satellite

Ground track
Ground track

The orbit data is extracted from the following two-line orbital elements,

1 16262U 85108A   13140.43774709  .00002492  00000-0  18216-3 0  1685
2 16262 082.4952 264.1197 0012845 008.1301 352.0130 15.03171001494608
Epoch (UTC): 20 May 2013 10:30:21
Eccentricity: 0.0012845
inclination: 82.4952°
perigee height: 548 km
apogee height: 566 km
right ascension of ascending node: 264.1197°
argument of perigee: 8.1301°
revolutions per day: 15.03171001
mean anomaly at epoch: 352.0130°
orbit number at epoch: 49460

The dashed part of the orbit path shows where the satellite is in the earth's shadow,  

Developed and maintained by Chris Peat, Heavens-Above GmbH. Please read the updated FAQ before sending e-mail. Imprint. DLR